User: anonymous   Login
Location: Caltech
(34.1382°N, 118.1253°W)
Time: 06:01:06
(UTC-08:00)
Language:

Iridium 75 - Orbit

View from above orbital plane
View from above orbital plane
View from above satellite
View from above satellite

Ground track
Ground track

The orbit data is extracted from the following two-line orbital elements,

1 25346U 98032E   16342.29071422  .00000033  00000-0  47336-5 0  9999
2 25346  86.3949 304.3268 0002124  85.8681  32.8069 14.34217122972162
Epoch (UTC): 07 December 2016 06:58:37
Eccentricity: 0.0002124
inclination: 86.3949°
perigee height: 776 km
apogee height: 779 km
right ascension of ascending node: 304.3268°
argument of perigee: 85.8681°
revolutions per day: 14.34217122
mean anomaly at epoch: 32.8069°
orbit number at epoch: 97216

The dashed part of the orbit path shows where the satellite is in the earth's shadow,  

DLR